map of KSJX home
Great Circle Mapper logo
KSJX - Airport
Location
City:  Beaver Island, Michigan, United States
ICAO:KSJX
FAA:SJX

Details
Type:Airport (Airfield)
Use:Public/Civil
Latitude:4541'32"N (45.692222)
Longitude:8534'00"W (-85.566610)
Datum:WGS 1984
Elevation:669 ft (204 m)
Variation:6.28W (WMM2015 magnetic declination)
-0.02 annual change
Runways:3
Longest:4299 × 75 ft (1310 × 23 m), paved

Time
Time Zone:UTC-5 (DST-4)
Local Time:

Weather
METAR:KSJX 300517Z AUTO 26008KT 10SM SCT008 OVC017 01/00 A2963 RMK AO2 T00100000

Related Locations
Nearby:
Farthest:MGV: 11078 mi / 17828 km
Margaret River, WA, AU

Find:

   beyond  
but within

Other Information
Maps:
NOTAMs:
Links:
Sources:

  
flag of United States
flag of Michigan
  

Sectional Chart

Flight Planning
at skyvector.com

Satellite Image

Google Maps Satellite View

 

Copyright © 2004-2015 Karl L. Swartz. All rights reserved.
The Great Circle Mapper name and logo are trademarks of the Great Circle Mapper.
All other trademarks mentioned herein belong to their respective owners.
Please see credits for attibutions and further copyright information.

  Follow gcmap on Facebook Follow gcmap on Twitter Follow gcmap on Google+

hCard Microformat

Geo Microformat